STARLINK-35677, 66220

Orbit data source: Space-Track

STARLINK-35677, 66220 is a payload satellite owned by SpaceX/Seattle (US) in LEO that was launched on Tue, 28 Oct 2025 UTC via an FALCON 9 launch vehicle from the Air Force Western Test Range (AFWTR). Payload-class satellites include a variety of spacecraft equipped with specific instruments for various scientific and technological missions. These include communications satellites like Starlink; space stations such as the ISS; scientific satellites like the Hubble; Earth observation satellites from companies like Planet Labs, Umbra, and HawkEye 360; GPS; miniature CubeSats for education and research; and military/defense satellites.

Loading next visibility...
Identifier
66220, 2025-244Q
Orbit
LEO
Country
Flag of USUS
Related business
Manufacturer
SpaceX/Seattle
Mission
Operational Commercial Communications
Bus & Motor
STARLINK V2MO, Unknown motor
Mass
575 kg wet, ~530 kg dry
Launch date (UTC)
2025-10-28 (8 months ago)
Launch vehicle
FALCON 9
Launch site
Air Force Western Test Range (AFWTR)
Object type
Payload
Rocket body
Debris
Shape & HBR
Box + 2 Pan, 17.7 m
Radar Cross Section
36.964 m², Large (>1 m²)

Expand to show TLE details & history
Last TLE update: 14 hours ago

TLE from 14 hours ago
0 STARLINK-35677
1 66220U 25244Q   26171.24805309  .00020509  00000-0  61605-3 0  9998
2 66220  53.1599 112.6923 0001156  82.3346 277.7788 15.34420947 37378
Epoch: 2026-06-20T05:57Z
TLE epoch observation values (Epoch: 2026-06-20T05:57:11.786Z)
Latitude
-0.00004°
Longitude
114.92776°
Altitude
463.435 km
Speed
7.636 km/s
True Right ascension
07h 30m 46s
True Declination
0° 00' 00"
Sunlit
Object was in daylight at epoch
Visualization orbit readout
Latitude
Unknown
Longitude
Unknown
Altitude
Unknown
Speed
Unknown
Apparent Right ascension
Unknown
Apparent Declination
Unknown
Sunlit
N/A
Visualization observer readout
Local Sidereal Time
07:17:56
Azimuth
Unknown
Elevation
Unknown
Doppler factor
Unknown
Orbital elements
Apogee altitude
463.689 km
Perigee altitude
462.107 km
Semi-major axis
6,841.035 km
Eccentricity
0.00012
Inclination
53.1599°
RAAN
112.6923°
Arg. of periapsis
82.3346°
True anomaly
277.76567°
Mean anomaly
277.7788°
Eccentric anomaly
277.77224°
Mean motion
3.83584 °/min
Orbital period
93.85 mins
BSTAR
0.00061605
Loading maneuver chart data...
Computing Atmospheric mass density...
Loading historical data...
Loading historical data...
Loading historical data...
Loading historical data...
Loading historical data...
Loading historical data...
Loading historical data...

Documentation

Showing up to 5 results
|